GPS BIIF-3

Last updated on Thu Dec 11 2025 00:02:34 GMT+0000 (Coordinated Universal Time)

1 38833U 12053A 25343.85972885 .00000068 00000+0 00000+0 0 9997 2 38833 53.5569 151.3565 0175755 63.9530 297.8432 2.00564945 95646
UTC large
Height (km)
Speed (km/s)
/
Latitude / Longitude
Inclination (degrees)
Orbital Period (minutes)
Azimuth
Elevation
Range (km)
Doppler Factor

Next 0 passes for location: London (51.5072 / 0.1276)

Sorry there are no passes over London.